Location: Unspecified
(0.0000°N, 0.0000°E)
Time: 18:54:01
(UTC+00:00)

Explorer 7 - Pass Details

Date: 27 November 2019
Orbit: 485 x 680 km, 50.3° (Epoch: 06 December)

Event Time Altitude Azimuth Distance (km) Brightness Sun altitude
Rises 04:54:28 0° 351° (N) 2,624 - -12.3°
Exits shadow 04:54:33 - 352° (N) 2,592 10.0 -12.3°
Reaches altitude 10° 04:57:28 10° 15° (NNE) 1,707 9.3 -11.6°
Maximum altitude 04:59:43 15° 52° (NE) 1,404 9.3 -11.1°
Drops below altitude 10° 05:01:57 10° 88° (E) 1,675 10.5 -10.6°
Sets 05:04:50 0° 112° (ESE) 2,544 12.6 -9.9°
